Location: Unspecified
(51.5147°N, 7.4673°E)
Time: 05:45:32
(UTC+01:00)

A-11 Canister half - Pass Details

Date: 20 February 2026
Orbit: 1524 x 1683 km, 47.3° (Epoch: 14 March)

Event Time Altitude Azimuth Distance (km) Brightness Sun altitude
Rises 23:33:55 0° 286° (WNW) 4,678 11.9 -46.7°
Reaches altitude 10° 23:38:01 10° 270° (W) 3,698 11.1 -47.0°
Enters shadow 23:39:33 14° 262° (W) 3,416 10.9 -47.1°
